Regional Weather Roundup
Issued by NWS

Home | Current Version | Previous Version | Graphics & Text | Print | Product List | Glossary Off
Versions: 1 2 3 4 5 6 7 8 9 10 11 12 13 14 15 16 17 18 19 20 21 22 23 24 25 26 27 28 29 30 31 32 33 34 35 36 37 38 39 40 41 42 43 44 45 46 47 48 49 50

000
ASUS43 KMKX 270421
RWRWI

WISCONSIN REGIONAL WEATHER ROUNDUP
NATIONAL WEATHER SERVICE MILWAUKEE/SULLIVAN WI
1000 PM CST MON JAN 26 2015

NOTE: "FAIR" INDICATES FEW OR NO CLOUDS BELOW 12,000 FEET WITH NO
SIGNIFICANT WEATHER AND/OR OBSTRUCTIONS TO VISIBILITY.

WIZ001-002-006>008-014>016-023>028-270500-
NORTHWEST WISCONSIN

CITY           SKY/WX    TMP DP  RH WIND       PRES   REMARKS
SUPERIOR ARPT  CLOUDY    30  26  83 N6        29.95R WCI  24
ASHLAND        CLOUDY    25  22  88 CALM      29.94R
HAYWARD        CLOUDY    28  24  85 N7        29.90R WCI  21
SIREN          CLOUDY    32  29  88 N7        29.93R WCI  26
CUMBERLAND     CLOUDY    32  28  86 N8        29.89R WCI  25
RICE LAKE      CLOUDY    30  28  93 N6        29.91R WCI  24
CHETEK         CLOUDY    27  26  96 CALM      29.90S FOG
LADYSMITH      CLOUDY    24  23  94 CALM      29.90R
EAU CLAIRE     CLOUDY    27  24  89 CALM      29.90R
MENOMONIE      CLOUDY    30  29  94 N3        29.90R FOG
NEW RICHMOND   CLOUDY    35  29  80 N10       29.91R WCI  27
OSCEOLA        CLOUDY    36  30  79 NW7       29.95R WCI  30
$$

WIZ003>005-009-010-017-018-270500-
NORTH CENTRAL WISCONSIN

CITY           SKY/WX    TMP DP  RH WIND       PRES   REMARKS
MANITOWISH WTR CLOUDY    19  17  93 CALM      29.88R
ARBOR VITAE    CLOUDY    22  19  89 CALM      29.88R
WOODRUFF       CLOUDY    22  19  89 CALM      29.88R
RHINELANDER    CLOUDY    19  16  88 E3        29.88R
EAGLE RIVER    CLOUDY    19  16  86 CALM      29.88R
LAND O LAKES   CLOUDY    19  17  92 CALM      29.89R
PHILLIPS       CLOUDY    20  18  93 CALM      29.88R
TOMAHAWK       CLOUDY    19  17  92 CALM      29.88R
MEDFORD        CLOUDY    21  19  93 CALM      29.87R FOG
MERRILL        CLOUDY    21  19  93 CALM      29.88S
$$

WIZ029-030-035-036-043>047-270500-
CENTRAL WISCONSIN

CITY           SKY/WX    TMP DP  RH WIND       PRES   REMARKS
WAUSAU         CLOUDY    21  19  92 E5        29.87S WCI  15
MOSINEE        CLOUDY    21  21 100 E3        29.89R
MARSHFIELD     CLOUDY    23  21  92 E3        29.88R FOG
STEVENS POINT  CLOUDY    20  19  95 E3        29.89S
WAUPACA        LGT SNOW  26  23  89 CALM      29.92R
WAUTOMA        CLOUDY    23  23 100 CALM      29.91R FOG
WISC RAPIDS    CLOUDY    23  19  85 E3        29.91R
CAMP DOUGLAS   CLOUDY    25  25 100 CALM      29.89R
$$

WIZ011>013-019>022-031-037>040-048>050-270500-
NORTHEAST WISCONSIN

CITY           SKY/WX    TMP DP  RH WIND       PRES   REMARKS
ANTIGO         CLOUDY    20  19  95 E5        29.88R WCI  13
SHAWANO        LGT SNOW  25  22  89 CALM      29.93R
OCONTO         CLOUDY    25  24  99 CALM      29.95R
STURGEON BAY   CLOUDY    23  18  80 SE6       29.98R WCI  16
GREEN BAY      LGT SNOW  25  23  92 N3        29.93R FOG
MANITOWOC      LGT SNOW  26  22  84 SE12      29.94R FOG     WCI  16
APPLETON       LGT SNOW  25  23  93 E3        29.91R
CLINTONVILLE   LGT SNOW  25  23  93 CALM      29.92R
OSHKOSH        LGT SNOW  24  21  88 CALM      29.91R FOG
$$

WIZ032>034-041-042-053>061-270500-
SOUTHWEST WISCONSIN

CITY           SKY/WX    TMP DP  RH WIND       PRES   REMARKS
LA CROSSE      CLOUDY    31  27  85 CALM      29.90R
SPARTA         CLOUDY    27  26  99 CALM      29.90R FOG
VIROQUA        CLOUDY    27  27 100 NW3       29.86R
BOSCOBEL       CLOUDY    27  24  89 CALM      29.90R FOG
PRAIRIE DU CHI CLOUDY    29  26  90 CALM      29.89S FOG
PLATTEVILLE    CLOUDY    26  25  96 CALM      29.87R
$$

WIZ056-057-062-063-064-067-068-270500-
SOUTH CENTRAL WISCONSIN

CITY           SKY/WX    TMP DP  RH WIND       PRES   REMARKS
REEDSBURG      CLOUDY    24  23  96 CALM      29.88R
BARABOO/DELLS  LGT SNOW  23  21  93 CALM      29.88R
LONE ROCK      CLOUDY    25  23  92 CALM      29.90R
MINERAL POINT  CLOUDY    27  27 100 CALM      29.86R FOG
MADISON        LGT SNOW  24  22  91 S5        29.88R FOG     WCI  18
MIDDLETON      CLOUDY    26  25  96 CALM      29.88S
WATERTOWN      LGT SNOW  24  24 100 CALM      29.89R
MONROE         FOG       25  25 100 CALM      29.86R VSB 1
JANESVILLE     LGT SNOW  27  27 100 SE3       29.88S
$$

WIZ051-052-058>065-066-070>072-270500-
SOUTHEAST WISCONSIN

CITY           SKY/WX    TMP DP  RH WIND       PRES   REMARKS
MILWAUKEE      LGT SNOW  26  22  84 CALM      29.90F
WAUKESHA       CLOUDY    23  21  93 SE3       29.90S FOG
MILWAUKEE/TIMM CLOUDY    27  21  80 CALM      29.91S
RACINE         LGT SNOW  26  22  84 S3        29.92S FOG
BURLINGTON     LGT SNOW  23  22  96 SE3       29.89S
KENOSHA        CLOUDY    26  23  88 CALM      29.90S
FOND DU LAC    LGT SNOW  24  21  88 SE6       29.91R FOG     WCI  17
SHEBOYGAN      CLOUDY    26  22  84 E3        29.92S
WEST BEND      CLOUDY    25  21  86 CALM      29.90R
JUNEAU         LGT SNOW  24  23  95 CALM      29.90R
$$

LSZ147-162-270500-
LAKE SUPERIOR

STATION/POSITION TIME  TEMP    WIND        PRES    WAVE
                       AIR SEA DIR/SP/G            HT/PER
                 (UTC) (F)     (DEG/KT/KT) (MB)    (FT/S)
DEVILS ISLAND    0400   28      10/  7/  7 1014.7R
PORT WING        0300   27     110/  2/  2 1013.9
SAXON HARBOR     0300   24        CALM     1013.2R
$$

LMZ867-665-643>646-270500-
LAKE MICHIGAN

STATION/POSITION TIME  TEMP    WIND        PRES    WAVE
                       AIR SEA DIR/SP/G            HT/PER
                 (UTC) (F)     (DEG/KT/KT) (MB)    (FT/S)
NORTHPORT PIER   0321   25     130/  9/ 14 1015.2R
SISTER BAY       0313   24     140/  8/ 11   N/A
KEWAUNEE LAKESHO 0300   26     150/ 14/ 17 1012.9R
SHEBOYGAN LAKESH 0400   27     120/ 18/ 19 1014.3F
PORT WASHINGTON  0300   26        CALM     1013.9
MILWAUKEE LAKESH 0300   27     240/  5/  6   N/A
KENOSHA   LAKESH 0400   27     210/  4/  5 1012.9F
$$

TC  - TEMPERATURE IN CELSIUS
VSB - VISIBILITY IN STATUTE MILES
WCI - WIND CHILL INDEX
HX  - HEAT INDEX



USA.gov is the U.S. government's official web portal to all federal, state and local government web resources and services.